Time,TemperatureF,DewpointF,PressureIn,WindDirection,WindDirectionDegrees,WindSpeedMPH,WindSpeedGustMPH,Humidity,HourlyPrecipIn,Conditions,Clouds,dailyrainin,SoftwareType,DateUTC
2013-07-25 00:00:00,81.5,73.2,29.90,SSE,151,0.0,6.0,76,0.00,,SKC,0.00,VWS V14.01,2013-07-25 05:00:00,
2013-07-25 00:02:00,81.2,73.3,29.90,SSE,150,0.0,7.0,77,0.00,,SKC,0.00,VWS V14.01,2013-07-25 05:02:00,
2013-07-25 00:07:00,81.1,73.2,29.91,SSE,153,0.0,3.0,77,0.00,,SKC,0.00,VWS V14.01,2013-07-25 05:07:00,
2013-07-25 00:10:00,81.2,73.3,29.91,SSE,153,3.0,7.0,77,0.00,,SKC,0.00,VWS V14.01,2013-07-25 05:10:00,
2013-07-25 00:12:00,81.0,73.5,29.91,SSE,153,0.0,3.0,78,0.00,,SKC,0.00,VWS V14.01,2013-07-25 05:12:00,
2013-07-25 00:17:00,80.8,73.3,29.91,SSE,153,3.0,6.0,78,0.00,,SKC,0.00,VWS V14.01,2013-07-25 05:17:00,
2013-07-25 00:20:00,80.8,73.3,29.91,SSE,153,4.0,5.0,78,0.00,,SKC,0.00,VWS V14.01,2013-07-25 05:20:00,
2013-07-25 00:22:00,80.6,73.5,29.91,SSE,153,0.0,8.0,79,0.00,,SKC,0.00,VWS V14.01,2013-07-25 05:22:00,
2013-07-25 00:27:00,80.5,73.4,29.91,SSE,153,0.0,5.0,79,0.00,,SKC,0.00,VWS V14.01,2013-07-25 05:27:00,
2013-07-25 00:30:00,80.5,73.4,29.91,SSE,153,0.0,8.0,79,0.00,,SKC,0.00,VWS V14.01,2013-07-25 05:30:00,
2013-07-25 00:32:00,80.4,73.3,29.91,SSE,153,0.0,7.0,79,0.00,,SKC,0.00,VWS V14.01,2013-07-25 05:32:00,
2013-07-25 00:37:00,80.2,73.5,29.91,SSE,153,0.0,4.0,80,0.00,,SKC,0.00,VWS V14.01,2013-07-25 05:37:00,
2013-07-25 00:40:00,80.3,73.6,29.91,SSE,153,0.0,7.0,80,0.00,,SKC,0.00,VWS V14.01,2013-07-25 05:40:00,
2013-07-25 00:42:00,80.1,73.4,29.92,SSE,153,0.0,6.0,80,0.00,,SKC,0.00,VWS V14.01,2013-07-25 05:42:00,
2013-07-25 00:47:00,79.9,73.6,29.91,SSE,153,0.0,0.0,81,0.00,,SKC,0.00,VWS V14.01,2013-07-25 05:47:00,
2013-07-25 00:50:00,79.9,73.6,29.92,SSE,153,0.0,6.0,81,0.00,,SKC,0.00,VWS V14.01,2013-07-25 05:50:00,
2013-07-25 00:52:00,79.7,73.4,29.92,SSE,153,0.0,5.0,81,0.00,,SKC,0.00,VWS V14.01,2013-07-25 05:52:00,
2013-07-25 00:57:00,79.6,73.3,29.92,SSE,153,0.0,0.0,81,0.00,,SKC,0.00,VWS V14.01,2013-07-25 05:57:00,
2013-07-25 01:00:00,79.6,73.3,29.92,SSE,153,0.0,5.0,81,0.00,,SKC,0.00,VWS V14.01,2013-07-25 06:00:00,
2013-07-25 01:02:00,79.5,73.5,29.92,SSE,153,0.0,4.0,82,0.00,,SKC,0.00,VWS V14.01,2013-07-25 06:02:00,
2013-07-25 01:07:00,79.3,73.3,29.92,SSE,153,0.0,0.0,82,0.00,,SKC,0.00,VWS V14.01,2013-07-25 06:07:00,
2013-07-25 01:10:00,79.4,73.4,29.92,SSE,153,0.0,5.0,82,0.00,,SKC,0.00,VWS V14.01,2013-07-25 06:10:00,
2013-07-25 01:12:00,79.2,73.6,29.92,SSE,153,0.0,0.0,83,0.00,,SKC,0.00,VWS V14.01,2013-07-25 06:12:00,
2013-07-25 01:17:00,79.1,73.5,29.92,SSE,153,0.0,1.0,83,0.00,,SKC,0.00,VWS V14.01,2013-07-25 06:17:00,
2013-07-25 01:20:00,79.1,73.5,29.92,SSE,153,0.0,4.0,83,0.00,,SKC,0.00,VWS V14.01,2013-07-25 06:20:00,
2013-07-25 01:22:00,78.9,73.3,29.92,SSE,153,0.0,4.0,83,0.00,,SKC,0.00,VWS V14.01,2013-07-25 06:22:00,
2013-07-25 01:27:00,78.8,73.2,29.92,SSE,153,0.0,0.0,83,0.00,,SKC,0.00,VWS V14.01,2013-07-25 06:27:00,
2013-07-25 01:30:00,78.8,73.2,29.92,SSE,153,0.0,4.0,83,0.00,,SKC,0.00,VWS V14.01,2013-07-25 06:30:00,
2013-07-25 01:32:00,78.6,73.4,29.92,SSE,153,0.0,6.0,84,0.00,,SKC,0.00,VWS V14.01,2013-07-25 06:32:00,
2013-07-25 01:37:00,78.5,73.3,29.92,SSE,153,0.0,0.0,84,0.00,,SKC,0.00,VWS V14.01,2013-07-25 06:37:00,
2013-07-25 01:40:00,78.5,73.3,29.92,SSE,153,0.0,6.0,84,0.00,,SKC,0.00,VWS V14.01,2013-07-25 06:40:00,
2013-07-25 01:42:00,78.4,73.2,29.92,SSE,153,0.0,0.0,84,0.00,,SKC,0.00,VWS V14.01,2013-07-25 06:42:00,
2013-07-25 01:47:00,78.3,73.1,29.92,SSE,153,0.0,4.0,84,0.00,,SKC,0.00,VWS V14.01,2013-07-25 06:47:00,
2013-07-25 01:50:00,78.3,73.1,29.92,SSE,153,0.0,1.0,84,0.00,,SKC,0.00,VWS V14.01,2013-07-25 06:50:00,
2013-07-25 01:52:00,78.2,73.3,29.92,SSE,153,0.0,4.0,85,0.00,,SKC,0.00,VWS V14.01,2013-07-25 06:52:00,
2013-07-25 01:57:00,78.1,73.2,29.92,SSE,153,0.0,0.0,85,0.00,,SKC,0.00,VWS V14.01,2013-07-25 06:57:00,
2013-07-25 02:00:00,78.1,73.2,29.92,SSE,153,0.0,4.0,85,0.00,,SKC,0.00,VWS V14.01,2013-07-25 07:00:00,
2013-07-25 02:02:00,77.9,73.0,29.92,SSE,153,0.0,0.0,85,0.00,,SKC,0.00,VWS V14.01,2013-07-25 07:02:00,
2013-07-25 02:07:00,77.8,72.9,29.92,SSE,153,0.0,0.0,85,0.00,,SKC,0.00,VWS V14.01,2013-07-25 07:07:00,
2013-07-25 02:10:00,77.9,73.0,29.92,SSE,153,0.0,0.0,85,0.00,,SKC,0.00,VWS V14.01,2013-07-25 07:10:00,
2013-07-25 02:12:00,77.7,73.2,29.92,SSE,153,0.0,0.0,86,0.00,,SKC,0.00,VWS V14.01,2013-07-25 07:12:00,
2013-07-25 02:17:00,77.6,73.1,29.92,SSE,153,0.0,0.0,86,0.00,,SKC,0.00,VWS V14.01,2013-07-25 07:17:00,
2013-07-25 02:20:00,77.6,73.1,29.92,SSE,153,0.0,0.0,86,0.00,,SKC,0.00,VWS V14.01,2013-07-25 07:20:00,
2013-07-25 02:22:00,77.4,72.9,29.92,SSE,153,0.0,0.0,86,0.00,,SKC,0.00,VWS V14.01,2013-07-25 07:22:00,
2013-07-25 02:27:00,77.3,72.8,29.92,SSE,153,0.0,0.0,86,0.00,,SKC,0.00,VWS V14.01,2013-07-25 07:27:00,
2013-07-25 02:30:00,77.3,72.8,29.92,SSE,153,0.0,0.0,86,0.00,,SKC,0.00,VWS V14.01,2013-07-25 07:30:00,
2013-07-25 02:32:00,77.2,73.0,29.93,SSE,153,0.0,0.0,87,0.00,,SKC,0.00,VWS V14.01,2013-07-25 07:32:00,
2013-07-25 02:37:00,77.0,72.8,29.93,SSE,153,0.0,0.0,87,0.00,,SKC,0.00,VWS V14.01,2013-07-25 07:37:00,
2013-07-25 02:40:00,77.1,72.9,29.93,SSE,153,0.0,0.0,87,0.00,,SKC,0.00,VWS V14.01,2013-07-25 07:40:00,
2013-07-25 02:42:00,76.9,72.7,29.93,SSE,153,0.0,0.0,87,0.00,,SKC,0.00,VWS V14.01,2013-07-25 07:42:00,
2013-07-25 02:47:00,76.8,73.0,29.93,SSE,153,0.0,0.0,88,0.00,,SKC,0.00,VWS V14.01,2013-07-25 07:47:00,
2013-07-25 02:50:00,76.9,73.1,29.93,SSE,153,0.0,0.0,88,0.00,,SKC,0.00,VWS V14.01,2013-07-25 07:50:00,
2013-07-25 02:52:00,76.7,72.9,29.93,SSE,153,0.0,0.0,88,0.00,,SKC,0.00,VWS V14.01,2013-07-25 07:52:00,
2013-07-25 02:57:00,76.6,72.8,29.93,SSE,153,0.0,0.0,88,0.00,,SKC,0.00,VWS V14.01,2013-07-25 07:57:00,
2013-07-25 03:00:00,76.6,72.8,29.93,SSE,153,0.0,0.0,88,0.00,,SKC,0.00,VWS V14.01,2013-07-25 08:00:00,
2013-07-25 03:02:00,76.5,73.0,29.93,SSE,153,0.0,0.0,89,0.00,,SKC,0.00,VWS V14.01,2013-07-25 08:02:00,
2013-07-25 03:07:00,76.4,72.9,29.93,SSE,153,0.0,0.0,89,0.00,,SKC,0.00,VWS V14.01,2013-07-25 08:07:00,
2013-07-25 03:10:00,76.4,72.9,29.93,SSE,153,0.0,0.0,89,0.00,,SKC,0.00,VWS V14.01,2013-07-25 08:10:00,
2013-07-25 03:12:00,76.3,72.8,29.93,SSE,153,0.0,0.0,89,0.00,,SKC,0.00,VWS V14.01,2013-07-25 08:12:00,
2013-07-25 03:17:00,76.2,72.7,29.93,SSE,153,0.0,0.0,89,0.00,,SKC,0.00,VWS V14.01,2013-07-25 08:17:00,
2013-07-25 03:20:00,76.2,72.7,29.93,SSE,153,0.0,0.0,89,0.00,,SKC,0.00,VWS V14.01,2013-07-25 08:20:00,
2013-07-25 03:22:00,76.2,72.7,29.93,SSE,153,0.0,0.0,89,0.00,,SKC,0.00,VWS V14.01,2013-07-25 08:22:00,
2013-07-25 03:27:00,76.1,73.0,29.93,SSE,153,0.0,0.0,90,0.00,,SKC,0.00,VWS V14.01,2013-07-25 08:27:00,
2013-07-25 03:30:00,76.1,73.0,29.93,SSE,153,0.0,0.0,90,0.00,,SKC,0.00,VWS V14.01,2013-07-25 08:30:00,
2013-07-25 03:32:00,76.1,73.0,29.93,SSE,153,0.0,0.0,90,0.00,,SKC,0.00,VWS V14.01,2013-07-25 08:32:00,
2013-07-25 03:37:00,76.0,72.9,29.93,SSE,153,0.0,0.0,90,0.00,,SKC,0.00,VWS V14.01,2013-07-25 08:37:00,
2013-07-25 03:40:00,76.1,73.0,29.93,SSE,153,0.0,0.0,90,0.00,,SKC,0.00,VWS V14.01,2013-07-25 08:40:00,
2013-07-25 03:42:00,76.0,72.9,29.93,SSE,153,0.0,0.0,90,0.00,,SKC,0.00,VWS V14.01,2013-07-25 08:42:00,
2013-07-25 03:47:00,75.9,72.8,29.93,SSE,153,0.0,0.0,90,0.00,,SKC,0.00,VWS V14.01,2013-07-25 08:47:00,
2013-07-25 03:50:00,76.0,72.9,29.93,SSE,153,0.0,0.0,90,0.00,,SKC,0.00,VWS V14.01,2013-07-25 08:50:00,
2013-07-25 03:52:00,75.9,72.8,29.93,SSE,153,0.0,0.0,90,0.00,,SKC,0.00,VWS V14.01,2013-07-25 08:52:00,
2013-07-25 03:57:00,75.8,73.0,29.93,SSE,153,0.0,0.0,91,0.00,,SKC,0.00,VWS V14.01,2013-07-25 08:57:00,
2013-07-25 04:00:00,75.8,73.0,29.93,SSE,153,0.0,0.0,91,0.00,,SKC,0.00,VWS V14.01,2013-07-25 09:00:00,
2013-07-25 04:02:00,75.7,72.9,29.93,SSE,153,0.0,0.0,91,0.00,,SKC,0.00,VWS V14.01,2013-07-25 09:02:00,
2013-07-25 04:07:00,75.7,72.9,29.93,SSE,153,0.0,0.0,91,0.00,,SKC,0.00,VWS V14.01,2013-07-25 09:07:00,
2013-07-25 04:10:00,75.7,72.9,29.93,SSE,153,0.0,0.0,91,0.00,,SKC,0.00,VWS V14.01,2013-07-25 09:10:00,
2013-07-25 04:12:00,75.6,72.8,29.93,SSE,153,0.0,0.0,91,0.00,,SKC,0.00,VWS V14.01,2013-07-25 09:12:00,
2013-07-25 04:17:00,75.6,72.8,29.93,SSE,153,0.0,0.0,91,0.00,,SKC,0.00,VWS V14.01,2013-07-25 09:17:00,
2013-07-25 04:20:00,75.6,72.8,29.94,SSE,153,0.0,0.0,91,0.00,,SKC,0.00,VWS V14.01,2013-07-25 09:20:00,
2013-07-25 04:22:00,75.5,72.7,29.93,SSE,153,0.0,0.0,91,0.00,,SKC,0.00,VWS V14.01,2013-07-25 09:22:00,
2013-07-25 04:27:00,75.5,72.7,29.93,SSE,153,0.0,0.0,91,0.00,,SKC,0.00,VWS V14.01,2013-07-25 09:27:00,
2013-07-25 04:30:00,75.5,72.7,29.94,SSE,153,0.0,0.0,91,0.00,,SKC,0.00,VWS V14.01,2013-07-25 09:30:00,
2013-07-25 04:32:00,75.4,72.6,29.93,SSE,153,0.0,0.0,91,0.00,,SKC,0.00,VWS V14.01,2013-07-25 09:32:00,
2013-07-25 04:37:00,75.4,72.6,29.93,SSE,153,0.0,0.0,91,0.00,,SKC,0.00,VWS V14.01,2013-07-25 09:37:00,
2013-07-25 04:40:00,75.4,72.6,29.93,SSE,153,0.0,0.0,91,0.00,,SKC,0.00,VWS V14.01,2013-07-25 09:40:00,
2013-07-25 04:42:00,75.3,72.5,29.94,SSE,153,0.0,0.0,91,0.00,,SKC,0.00,VWS V14.01,2013-07-25 09:42:00,
2013-07-25 04:47:00,75.3,72.5,29.94,SSE,153,0.0,0.0,91,0.00,,SKC,0.00,VWS V14.01,2013-07-25 09:47:00,
2013-07-25 04:50:00,75.3,72.5,29.93,SSE,153,0.0,0.0,91,0.00,,SKC,0.00,VWS V14.01,2013-07-25 09:50:00,
2013-07-25 04:52:00,75.3,72.8,29.94,SSE,153,0.0,0.0,92,0.00,,SKC,0.00,VWS V14.01,2013-07-25 09:52:00,
2013-07-25 04:57:00,75.3,72.8,29.94,SSE,153,0.0,0.0,92,0.00,,SKC,0.00,VWS V14.01,2013-07-25 09:57:00,
2013-07-25 05:00:00,75.3,72.8,29.94,SSE,153,0.0,0.0,92,0.00,,SKC,0.00,VWS V14.01,2013-07-25 10:00:00,
2013-07-25 05:02:00,75.2,72.7,29.94,SSE,153,0.0,0.0,92,0.00,,SKC,0.00,VWS V14.01,2013-07-25 10:02:00,
2013-07-25 05:07:00,75.2,72.7,29.94,SSE,153,0.0,0.0,92,0.00,,SKC,0.00,VWS V14.01,2013-07-25 10:07:00,
2013-07-25 05:10:00,75.2,72.7,29.94,SSE,153,0.0,0.0,92,0.00,,SKC,0.00,VWS V14.01,2013-07-25 10:10:00,
2013-07-25 05:12:00,75.2,72.7,29.95,SSE,153,0.0,0.0,92,0.00,,SKC,0.00,VWS V14.01,2013-07-25 10:12:00,
2013-07-25 05:17:00,75.2,72.7,29.95,SSE,153,0.0,0.0,92,0.00,,SKC,0.00,VWS V14.01,2013-07-25 10:17:00,
2013-07-25 05:20:00,75.2,72.7,29.95,SSE,153,0.0,0.0,92,0.00,,SKC,0.00,VWS V14.01,2013-07-25 10:20:00,
2013-07-25 05:22:00,75.2,72.7,29.95,SSE,153,0.0,0.0,92,0.00,,SKC,0.00,VWS V14.01,2013-07-25 10:22:00,
2013-07-25 05:27:00,75.2,73.0,29.95,SSE,153,0.0,0.0,93,0.00,,SKC,0.00,VWS V14.01,2013-07-25 10:27:00,
2013-07-25 05:30:00,75.2,72.7,29.95,SSE,153,0.0,0.0,92,0.00,,SKC,0.00,VWS V14.01,2013-07-25 10:30:00,
2013-07-25 05:32:00,75.2,72.7,29.95,SSE,153,0.0,0.0,92,0.00,,SKC,0.00,VWS V14.01,2013-07-25 10:32:00,
2013-07-25 05:37:00,75.2,72.7,29.95,SSE,153,0.0,0.0,92,0.00,,SKC,0.00,VWS V14.01,2013-07-25 10:37:00,
2013-07-25 05:40:00,75.2,72.7,29.95,SSE,153,0.0,0.0,92,0.00,,SKC,0.00,VWS V14.01,2013-07-25 10:40:00,
2013-07-25 05:42:00,75.1,72.6,29.95,SSE,153,0.0,0.0,92,0.00,,SKC,0.00,VWS V14.01,2013-07-25 10:42:00,
2013-07-25 05:47:00,75.1,72.6,29.95,SSE,153,0.0,0.0,92,0.00,,SKC,0.00,VWS V14.01,2013-07-25 10:47:00,
2013-07-25 05:50:00,75.1,72.6,29.95,SSE,153,0.0,0.0,92,0.00,,SKC,0.00,VWS V14.01,2013-07-25 10:50:00,
2013-07-25 05:52:00,75.1,72.6,29.96,SSE,153,0.0,0.0,92,0.00,,SKC,0.00,VWS V14.01,2013-07-25 10:52:00,
2013-07-25 05:57:00,75.1,72.6,29.95,SSE,153,0.0,0.0,92,0.00,,SKC,0.00,VWS V14.01,2013-07-25 10:57:00,
2013-07-25 06:00:00,75.1,72.6,29.96,SSE,153,0.0,0.0,92,0.00,,SKC,0.00,VWS V14.01,2013-07-25 11:00:00,
2013-07-25 06:02:00,75.0,72.5,29.96,SSE,153,0.0,0.0,92,0.00,,SKC,0.00,VWS V14.01,2013-07-25 11:02:00,
2013-07-25 06:07:00,75.0,72.5,29.96,SSE,153,0.0,0.0,92,0.00,,SKC,0.00,VWS V14.01,2013-07-25 11:07:00,
2013-07-25 06:10:00,75.0,72.5,29.96,SSE,153,0.0,0.0,92,0.00,,SKC,0.00,VWS V14.01,2013-07-25 11:10:00,
2013-07-25 06:12:00,74.9,72.4,29.96,SSE,153,0.0,0.0,92,0.00,,SKC,0.00,VWS V14.01,2013-07-25 11:12:00,
2013-07-25 06:17:00,74.8,72.3,29.96,SSE,153,0.0,0.0,92,0.00,,SKC,0.00,VWS V14.01,2013-07-25 11:17:00,
2013-07-25 06:20:00,74.8,72.3,29.96,SSE,153,0.0,0.0,92,0.00,,SKC,0.00,VWS V14.01,2013-07-25 11:20:00,
2013-07-25 06:22:00,74.8,72.3,29.96,SSE,153,0.0,0.0,92,0.00,,SKC,0.00,VWS V14.01,2013-07-25 11:22:00,
2013-07-25 06:27:00,74.7,72.2,29.96,SSE,153,0.0,0.0,92,0.00,,SKC,0.00,VWS V14.01,2013-07-25 11:27:00,
2013-07-25 06:30:00,74.7,72.2,29.96,SSE,153,0.0,0.0,92,0.00,,SKC,0.00,VWS V14.01,2013-07-25 11:30:00,
2013-07-25 06:32:00,74.6,72.1,29.96,SSE,153,0.0,0.0,92,0.00,,SKC,0.00,VWS V14.01,2013-07-25 11:32:00,
2013-07-25 06:37:00,74.5,72.0,29.96,SSE,153,0.0,0.0,92,0.00,,SKC,0.00,VWS V14.01,2013-07-25 11:37:00,
2013-07-25 06:40:00,74.5,72.0,29.96,SSE,153,0.0,0.0,92,0.00,,SKC,0.00,VWS V14.01,2013-07-25 11:40:00,
2013-07-25 06:42:00,74.4,72.2,29.96,SSE,153,0.0,0.0,93,0.00,,SKC,0.00,VWS V14.01,2013-07-25 11:42:00,
2013-07-25 06:47:00,74.4,72.2,29.97,SSE,153,0.0,0.0,93,0.00,,SKC,0.00,VWS V14.01,2013-07-25 11:47:00,
2013-07-25 06:50:00,74.4,72.2,29.97,SSE,153,0.0,0.0,93,0.00,,SKC,0.00,VWS V14.01,2013-07-25 11:50:00,
2013-07-25 06:52:00,74.3,72.2,29.97,SSE,155,0.0,0.0,93,0.00,,SKC,0.00,VWS V14.01,2013-07-25 11:52:00,
2013-07-25 06:57:00,74.3,72.2,29.97,SSE,155,0.0,0.0,93,0.00,,SKC,0.00,VWS V14.01,2013-07-25 11:57:00,
2013-07-25 07:00:00,74.3,72.2,29.97,SSE,155,0.0,0.0,93,0.00,,SKC,0.00,VWS V14.01,2013-07-25 12:00:00,
2013-07-25 07:02:00,74.3,72.2,29.97,SSE,155,0.0,0.0,93,0.00,,SKC,0.00,VWS V14.01,2013-07-25 12:02:00,
2013-07-25 07:07:00,74.3,72.2,29.97,SSE,155,0.0,0.0,93,0.00,,SKC,0.00,VWS V14.01,2013-07-25 12:07:00,
2013-07-25 07:10:00,74.3,72.2,29.97,SSE,155,0.0,0.0,93,0.00,,SKC,0.00,VWS V14.01,2013-07-25 12:10:00,
2013-07-25 07:12:00,74.3,72.5,29.97,SSE,155,0.0,0.0,94,0.00,,SKC,0.00,VWS V14.01,2013-07-25 12:12:00,
2013-07-25 07:17:00,74.4,72.6,29.97,SSE,155,0.0,0.0,94,0.00,,SKC,0.00,VWS V14.01,2013-07-25 12:17:00,
2013-07-25 07:20:00,74.4,72.6,29.97,SSE,155,0.0,0.0,94,0.00,,SKC,0.00,VWS V14.01,2013-07-25 12:20:00,
2013-07-25 07:22:00,74.5,72.7,29.97,SSE,155,0.0,0.0,94,0.00,,SKC,0.00,VWS V14.01,2013-07-25 12:22:00,
2013-07-25 07:27:00,74.6,72.8,29.97,SSE,155,0.0,0.0,94,0.00,,SKC,0.00,VWS V14.01,2013-07-25 12:27:00,
2013-07-25 07:30:00,74.5,72.7,29.97,SSE,155,0.0,0.0,94,0.00,,SKC,0.00,VWS V14.01,2013-07-25 12:30:00,
2013-07-25 07:32:00,74.7,72.9,29.97,SSE,155,0.0,0.0,94,0.00,,SKC,0.00,VWS V14.01,2013-07-25 12:32:00,
2013-07-25 07:37:00,74.9,73.1,29.97,SSE,155,0.0,0.0,94,0.00,,SKC,0.00,VWS V14.01,2013-07-25 12:37:00,
2013-07-25 07:40:00,74.8,73.0,29.97,SSE,155,0.0,0.0,94,0.00,,SKC,0.00,VWS V14.01,2013-07-25 12:40:00,
2013-07-25 07:42:00,75.1,73.3,29.97,SSE,155,0.0,0.0,94,0.00,,SKC,0.00,VWS V14.01,2013-07-25 12:42:00,
2013-07-25 07:47:00,75.3,73.5,29.97,SSE,155,0.0,0.0,94,0.00,,SKC,0.00,VWS V14.01,2013-07-25 12:47:00,
2013-07-25 07:50:00,75.2,73.4,29.97,SSE,155,0.0,0.0,94,0.00,,SKC,0.00,VWS V14.01,2013-07-25 12:50:00,
2013-07-25 07:52:00,75.6,73.8,29.97,SSE,155,0.0,0.0,94,0.00,,SKC,0.00,VWS V14.01,2013-07-25 12:52:00,
2013-07-25 07:57:00,75.8,73.9,29.98,SSE,155,0.0,0.0,94,0.00,,SKC,0.00,VWS V14.01,2013-07-25 12:57:00,
2013-07-25 08:00:00,75.7,73.9,29.97,SSE,155,0.0,0.0,94,0.00,,SKC,0.00,VWS V14.01,2013-07-25 13:00:00,
2013-07-25 08:02:00,76.1,73.9,29.98,SSE,155,0.0,0.0,93,0.00,,SKC,0.00,VWS V14.01,2013-07-25 13:02:00,
2013-07-25 08:07:00,76.3,74.1,29.98,SSE,155,0.0,0.0,93,0.00,,SKC,0.00,VWS V14.01,2013-07-25 13:07:00,
2013-07-25 08:10:00,76.2,74.0,29.98,SSE,155,0.0,0.0,93,0.00,,SKC,0.00,VWS V14.01,2013-07-25 13:10:00,
2013-07-25 08:12:00,76.6,74.1,29.97,SSE,155,0.0,1.0,92,0.00,,SKC,0.00,VWS V14.01,2013-07-25 13:12:00,
2013-07-25 08:17:00,76.8,74.3,29.97,SSE,155,0.0,3.0,92,0.00,,SKC,0.00,VWS V14.01,2013-07-25 13:17:00,
2013-07-25 08:20:00,76.7,74.2,29.97,SSE,155,0.0,4.0,92,0.00,,SKC,0.00,VWS V14.01,2013-07-25 13:20:00,
2013-07-25 08:22:00,77.0,74.2,29.98,SSE,155,4.0,5.0,91,0.00,,SKC,0.00,VWS V14.01,2013-07-25 13:22:00,
2013-07-25 08:27:00,77.2,74.0,29.98,SSE,155,0.0,0.0,90,0.00,,SKC,0.00,VWS V14.01,2013-07-25 13:27:00,
2013-07-25 08:30:00,77.1,73.9,29.98,SSE,155,0.0,5.0,90,0.00,,SKC,0.00,VWS V14.01,2013-07-25 13:30:00,
2013-07-25 08:32:00,77.3,74.1,29.98,SSE,155,0.0,0.0,90,0.00,,SKC,0.00,VWS V14.01,2013-07-25 13:32:00,
2013-07-25 08:37:00,77.6,74.1,29.97,SSE,155,0.0,4.0,89,0.00,,SKC,0.00,VWS V14.01,2013-07-25 13:37:00,
2013-07-25 08:40:00,77.5,74.3,29.97,SSE,155,3.0,6.0,90,0.00,,SKC,0.00,VWS V14.01,2013-07-25 13:40:00,
2013-07-25 08:42:00,77.8,74.0,29.98,SSE,161,0.0,8.0,88,0.00,,SKC,0.00,VWS V14.01,2013-07-25 13:42:00,
2013-07-25 08:47:00,78.0,74.2,29.98,SSE,161,0.0,2.0,88,0.00,,SKC,0.00,VWS V14.01,2013-07-25 13:47:00,
2013-07-25 08:50:00,77.9,74.1,29.98,SSE,161,0.0,8.0,88,0.00,,SKC,0.00,VWS V14.01,2013-07-25 13:50:00,
2013-07-25 08:52:00,78.2,74.0,29.97,SSE,162,0.0,6.0,87,0.00,,SKC,0.00,VWS V14.01,2013-07-25 13:52:00,
2013-07-25 08:57:00,78.5,73.6,29.97,SSE,167,0.0,8.0,85,0.00,,SKC,0.00,VWS V14.01,2013-07-25 13:57:00,
2013-07-25 09:00:00,78.4,73.9,29.98,SSE,165,4.0,9.0,86,0.00,,SKC,0.00,VWS V14.01,2013-07-25 14:00:00,
2013-07-25 09:02:00,78.8,73.9,29.97,South,175,0.0,11.0,85,0.00,,SKC,0.00,VWS V14.01,2013-07-25 14:02:00,
2013-07-25 09:07:00,79.3,74.1,29.97,South,176,4.0,4.0,84,0.00,,SKC,0.00,VWS V14.01,2013-07-25 14:07:00,
2013-07-25 09:10:00,79.1,73.8,29.97,South,176,2.0,11.0,84,0.00,,SKC,0.00,VWS V14.01,2013-07-25 14:10:00,
2013-07-25 09:12:00,79.5,73.5,29.97,South,177,4.0,7.0,82,0.00,,SKC,0.00,VWS V14.01,2013-07-25 14:12:00,
2013-07-25 09:17:00,79.6,73.3,29.98,South,178,0.0,7.0,81,0.00,,SKC,0.00,VWS V14.01,2013-07-25 14:17:00,
2013-07-25 09:20:00,79.5,73.2,29.98,South,177,7.0,7.0,81,0.00,,SKC,0.00,VWS V14.01,2013-07-25 14:20:00,
2013-07-25 09:22:00,79.8,73.4,29.98,South,178,0.0,7.0,81,0.00,,SKC,0.00,VWS V14.01,2013-07-25 14:22:00,
2013-07-25 09:27:00,79.9,73.6,29.98,South,178,3.0,3.0,81,0.00,,SKC,0.00,VWS V14.01,2013-07-25 14:27:00,
2013-07-25 09:30:00,79.9,73.6,29.98,South,178,3.0,7.0,81,0.00,,SKC,0.00,VWS V14.01,2013-07-25 14:30:00,
2013-07-25 09:32:00,80.2,73.5,29.98,South,179,0.0,7.0,80,0.00,,SKC,0.00,VWS V14.01,2013-07-25 14:32:00,
2013-07-25 09:37:00,80.5,73.4,29.98,South,185,0.0,7.0,79,0.00,,SKC,0.00,VWS V14.01,2013-07-25 14:37:00,
2013-07-25 09:40:00,80.3,73.2,29.98,South,184,2.0,11.0,79,0.00,,SKC,0.00,VWS V14.01,2013-07-25 14:40:00,
2013-07-25 09:42:00,80.8,73.7,29.98,South,185,5.0,10.0,79,0.00,,SKC,0.00,VWS V14.01,2013-07-25 14:42:00,
2013-07-25 09:47:00,81.4,74.3,29.98,South,186,0.0,8.0,79,0.00,,SKC,0.00,VWS V14.01,2013-07-25 14:47:00,
2013-07-25 09:50:00,81.1,74.0,29.98,South,186,0.0,10.0,79,0.00,,SKC,0.00,VWS V14.01,2013-07-25 14:50:00,
2013-07-25 09:52:00,82.1,74.6,29.98,South,186,0.0,8.0,78,0.00,,SKC,0.00,VWS V14.01,2013-07-25 14:52:00,
2013-07-25 09:57:00,82.8,74.1,29.98,South,187,2.0,6.0,75,0.00,,SKC,0.00,VWS V14.01,2013-07-25 14:57:00,
2013-07-25 10:00:00,82.6,74.3,29.98,South,186,0.0,8.0,76,0.00,,SKC,0.00,VWS V14.01,2013-07-25 15:00:00,
2013-07-25 10:02:00,82.8,74.1,29.98,South,190,0.0,8.0,75,0.00,,SKC,0.00,VWS V14.01,2013-07-25 15:02:00,
2013-07-25 10:07:00,82.8,73.7,29.98,South,190,0.0,3.0,74,0.00,,SKC,0.00,VWS V14.01,2013-07-25 15:07:00,
2013-07-25 10:10:00,82.8,74.1,29.98,South,190,0.0,8.0,75,0.00,,SKC,0.00,VWS V14.01,2013-07-25 15:10:00,
2013-07-25 10:12:00,82.7,74.0,29.98,South,190,1.0,8.0,75,0.00,,SKC,0.00,VWS V14.01,2013-07-25 15:12:00,
2013-07-25 10:17:00,83.0,74.3,29.98,South,191,0.0,5.0,75,0.00,,SKC,0.00,VWS V14.01,2013-07-25 15:17:00,
2013-07-25 10:20:00,82.9,74.2,29.98,South,191,0.0,8.0,75,0.00,,SKC,0.00,VWS V14.01,2013-07-25 15:20:00,
2013-07-25 10:22:00,83.4,74.2,29.97,South,190,0.0,5.0,74,0.00,,SKC,0.00,VWS V14.01,2013-07-25 15:22:00,
2013-07-25 10:27:00,83.8,74.2,29.98,SSW,194,6.0,8.0,73,0.00,,SKC,0.00,VWS V14.01,2013-07-25 15:27:00,
2013-07-25 10:30:00,83.7,74.1,29.98,South,190,0.0,5.0,73,0.00,,SKC,0.00,VWS V14.01,2013-07-25 15:30:00,
2013-07-25 10:32:00,84.1,74.1,29.98,South,190,2.0,9.0,72,0.00,,SKC,0.00,VWS V14.01,2013-07-25 15:32:00,
2013-07-25 10:37:00,84.5,74.1,29.98,South,191,2.0,8.0,71,0.00,,SKC,0.00,VWS V14.01,2013-07-25 15:37:00,
2013-07-25 10:40:00,84.4,74.0,29.98,South,190,3.0,9.0,71,0.00,,SKC,0.00,VWS V14.01,2013-07-25 15:40:00,
2013-07-25 10:42:00,84.8,74.4,29.98,SSW,193,0.0,8.0,71,0.00,,SKC,0.00,VWS V14.01,2013-07-25 15:42:00,
2013-07-25 10:47:00,85.2,74.3,29.99,SSW,197,5.0,9.0,70,0.00,,SKC,0.00,VWS V14.01,2013-07-25 15:47:00,
2013-07-25 10:50:00,85.2,74.7,29.98,SSW,193,0.0,8.0,71,0.00,,SKC,0.00,VWS V14.01,2013-07-25 15:50:00,
2013-07-25 10:52:00,85.3,74.0,29.99,SSW,198,0.0,9.0,69,0.00,,SKC,0.00,VWS V14.01,2013-07-25 15:52:00,
2013-07-25 10:57:00,85.6,74.3,29.99,SSW,194,0.0,7.0,69,0.00,,SKC,0.00,VWS V14.01,2013-07-25 15:57:00,
2013-07-25 11:00:00,85.5,74.2,29.99,SSW,198,0.0,9.0,69,0.00,,SKC,0.00,VWS V14.01,2013-07-25 16:00:00,
2013-07-25 11:02:00,86.0,74.2,29.99,SSW,194,0.0,7.0,68,0.00,,SKC,0.00,VWS V14.01,2013-07-25 16:02:00,
2013-07-25 11:07:00,86.4,74.6,29.99,SSW,196,1.0,7.0,68,0.00,,SKC,0.00,VWS V14.01,2013-07-25 16:07:00,
2013-07-25 11:10:00,86.2,74.4,29.99,SSW,194,3.0,7.0,68,0.00,,SKC,0.00,VWS V14.01,2013-07-25 16:10:00,
2013-07-25 11:12:00,86.8,74.5,29.99,SSW,196,2.0,7.0,67,0.00,,SKC,0.00,VWS V14.01,2013-07-25 16:12:00,
2013-07-25 11:17:00,87.0,74.7,29.99,SSW,196,0.0,4.0,67,0.00,,SKC,0.00,VWS V14.01,2013-07-25 16:17:00,
2013-07-25 11:20:00,87.0,74.7,29.99,SSW,196,2.0,7.0,67,0.00,,SKC,0.00,VWS V14.01,2013-07-25 16:20:00,
2013-07-25 11:22:00,87.2,74.9,29.99,SSW,196,2.0,6.0,67,0.00,,SKC,0.00,VWS V14.01,2013-07-25 16:22:00,
2013-07-25 11:27:00,87.5,75.2,29.99,SSW,196,2.0,3.0,67,0.00,,SKC,0.00,VWS V14.01,2013-07-25 16:27:00,
2013-07-25 11:30:00,87.4,75.1,29.99,SSW,196,3.0,6.0,67,0.00,,SKC,0.00,VWS V14.01,2013-07-25 16:30:00,
2013-07-25 11:32:00,87.7,74.9,29.99,SSW,196,3.0,5.0,66,0.00,,SKC,0.00,VWS V14.01,2013-07-25 16:32:00,
2013-07-25 11:37:00,88.1,74.4,29.98,SSW,196,1.0,6.0,64,0.00,,SKC,0.00,VWS V14.01,2013-07-25 16:37:00,
2013-07-25 11:40:00,88.0,75.2,29.98,SSW,196,0.0,5.0,66,0.00,,SKC,0.00,VWS V14.01,2013-07-25 16:40:00,
2013-07-25 11:42:00,88.2,73.6,29.98,SSW,194,2.0,7.0,62,0.00,,SKC,0.00,VWS V14.01,2013-07-25 16:42:00,
2013-07-25 11:47:00,88.7,74.5,29.98,SSW,194,3.0,3.0,63,0.00,,SKC,0.00,VWS V14.01,2013-07-25 16:47:00,
2013-07-25 11:50:00,88.4,74.2,29.98,SSW,194,1.0,7.0,63,0.00,,SKC,0.00,VWS V14.01,2013-07-25 16:50:00,
2013-07-25 11:52:00,89.0,73.8,29.98,SSW,192,0.0,8.0,61,0.00,,SKC,0.00,VWS V14.01,2013-07-25 16:52:00,
2013-07-25 11:57:00,89.1,73.9,29.98,SSW,192,0.0,0.0,61,0.00,,SKC,0.00,VWS V14.01,2013-07-25 16:57:00,
2013-07-25 12:00:00,89.0,74.3,29.98,SSW,192,0.0,8.0,62,0.00,,SKC,0.00,VWS V14.01,2013-07-25 17:00:00,
2013-07-25 12:02:00,89.3,74.6,29.98,SSW,192,1.0,7.0,62,0.00,,SKC,0.00,VWS V14.01,2013-07-25 17:02:00,
2013-07-25 12:07:00,89.8,74.6,29.98,SSW,194,0.0,5.0,61,0.00,,SKC,0.00,VWS V14.01,2013-07-25 17:07:00,
2013-07-25 12:10:00,89.7,75.0,29.98,SSW,194,0.0,7.0,62,0.00,,SKC,0.00,VWS V14.01,2013-07-25 17:10:00,
2013-07-25 12:12:00,89.9,74.7,29.98,SSW,196,0.0,8.0,61,0.00,,SKC,0.00,VWS V14.01,2013-07-25 17:12:00,
2013-07-25 12:17:00,90.1,74.3,29.98,SSW,196,0.0,0.0,60,0.00,,SKC,0.00,VWS V14.01,2013-07-25 17:17:00,
2013-07-25 12:20:00,90.0,73.8,29.98,SSW,196,0.0,8.0,59,0.00,,SKC,0.00,VWS V14.01,2013-07-25 17:20:00,
2013-07-25 12:22:00,90.3,74.5,29.98,SSW,196,0.0,2.0,60,0.00,,SKC,0.00,VWS V14.01,2013-07-25 17:22:00,
2013-07-25 12:27:00,90.7,73.4,29.98,SSW,199,0.0,2.0,57,0.00,,SKC,0.00,VWS V14.01,2013-07-25 17:27:00,
2013-07-25 12:30:00,90.6,74.8,29.98,SSW,199,0.0,7.0,60,0.00,,SKC,0.00,VWS V14.01,2013-07-25 17:30:00,
2013-07-25 12:32:00,91.0,73.7,29.98,SSW,198,0.0,5.0,57,0.00,,SKC,0.00,VWS V14.01,2013-07-25 17:32:00,
2013-07-25 12:37:00,91.3,73.9,29.98,SSW,198,0.0,0.0,57,0.00,,SKC,0.00,VWS V14.01,2013-07-25 17:37:00,
2013-07-25 12:40:00,91.2,74.4,29.98,SSW,198,0.0,5.0,58,0.00,,SKC,0.00,VWS V14.01,2013-07-25 17:40:00,
2013-07-25 12:42:00,91.6,74.2,29.98,SSW,198,1.0,1.0,57,0.00,,SKC,0.00,VWS V14.01,2013-07-25 17:42:00,
2013-07-25 12:47:00,91.9,74.0,29.98,SSW,198,0.0,4.0,56,0.00,,SKC,0.00,VWS V14.01,2013-07-25 17:47:00,
2013-07-25 12:50:00,91.8,73.9,29.98,SSW,198,0.0,4.0,56,0.00,,SKC,0.00,VWS V14.01,2013-07-25 17:50:00,
2013-07-25 12:52:00,91.9,72.9,29.98,SSW,198,0.0,4.0,54,0.00,,SKC,0.00,VWS V14.01,2013-07-25 17:52:00,
2013-07-25 12:57:00,91.8,73.9,29.98,SSW,198,0.0,0.0,56,0.00,,SKC,0.00,VWS V14.01,2013-07-25 17:57:00,
2013-07-25 13:00:00,91.9,72.9,29.98,SSW,198,0.0,6.0,54,0.00,,SKC,0.00,VWS V14.01,2013-07-25 18:00:00,
2013-07-25 13:02:00,92.0,74.6,29.98,SSW,198,0.0,1.0,57,0.00,,SKC,0.00,VWS V14.01,2013-07-25 18:02:00,
2013-07-25 13:07:00,92.4,73.3,29.98,South,177,0.0,8.0,54,0.00,,SKC,0.00,VWS V14.01,2013-07-25 18:07:00,
2013-07-25 13:10:00,92.3,74.3,29.98,SSW,198,0.0,1.0,56,0.00,,SKC,0.00,VWS V14.01,2013-07-25 18:10:00,
2013-07-25 13:12:00,92.7,73.1,29.98,South,177,0.0,8.0,53,0.00,,SKC,0.00,VWS V14.01,2013-07-25 18:12:00,
2013-07-25 13:17:00,93.0,72.2,29.98,South,182,0.0,5.0,51,0.00,,SKC,0.00,VWS V14.01,2013-07-25 18:17:00,
2013-07-25 13:20:00,93.0,72.8,29.98,South,183,0.0,10.0,52,0.00,,SKC,0.00,VWS V14.01,2013-07-25 18:20:00,
2013-07-25 13:22:00,93.3,73.1,29.98,South,183,0.0,5.0,52,0.00,,SKC,0.00,VWS V14.01,2013-07-25 18:22:00,
2013-07-25 13:27:00,93.4,72.0,29.98,South,183,0.0,3.0,50,0.00,,SKC,0.00,VWS V14.01,2013-07-25 18:27:00,
2013-07-25 13:30:00,93.4,73.2,29.98,South,183,2.0,5.0,52,0.00,,SKC,0.00,VWS V14.01,2013-07-25 18:30:00,
2013-07-25 13:32:00,93.8,73.5,29.97,South,182,0.0,3.0,52,0.00,,SKC,0.00,VWS V14.01,2013-07-25 18:32:00,
2013-07-25 13:37:00,93.9,73.0,29.97,South,183,0.0,0.0,51,0.00,,SKC,0.00,VWS V14.01,2013-07-25 18:37:00,
2013-07-25 13:40:00,93.9,73.0,29.97,South,183,0.0,3.0,51,0.00,,SKC,0.00,VWS V14.01,2013-07-25 18:40:00,
2013-07-25 13:42:00,94.1,73.8,29.97,South,182,1.0,3.0,52,0.00,,SKC,0.00,VWS V14.01,2013-07-25 18:42:00,
2013-07-25 13:47:00,94.4,71.7,29.97,South,182,0.0,4.0,48,0.00,,SKC,0.00,VWS V14.01,2013-07-25 18:47:00,
2013-07-25 13:50:00,94.4,72.9,29.97,South,182,0.0,5.0,50,0.00,,SKC,0.00,VWS V14.01,2013-07-25 18:50:00,
2013-07-25 13:52:00,94.6,72.5,29.97,South,187,0.0,4.0,49,0.00,,SKC,0.00,VWS V14.01,2013-07-25 18:52:00,
2013-07-25 13:57:00,94.8,73.9,29.97,South,188,0.0,4.0,51,0.00,,SKC,0.00,VWS V14.01,2013-07-25 18:57:00,
2013-07-25 14:00:00,94.7,73.8,29.97,South,188,1.0,7.0,51,0.00,,SKC,0.00,VWS V14.01,2013-07-25 19:00:00,
2013-07-25 14:02:00,95.1,72.9,29.96,South,188,1.0,6.0,49,0.00,,SKC,0.00,VWS V14.01,2013-07-25 19:02:00,
2013-07-25 14:07:00,95.2,72.4,29.96,South,187,0.0,1.0,48,0.00,,SKC,0.00,VWS V14.01,2013-07-25 19:07:00,
2013-07-25 14:10:00,95.2,72.4,29.97,South,187,0.0,7.0,48,0.00,,SKC,0.00,VWS V14.01,2013-07-25 19:10:00,
2013-07-25 14:12:00,95.3,73.1,29.96,South,187,0.0,5.0,49,0.00,,SKC,0.00,VWS V14.01,2013-07-25 19:12:00,
2013-07-25 14:17:00,95.3,71.9,29.96,South,187,0.0,1.0,47,0.00,,SKC,0.00,VWS V14.01,2013-07-25 19:17:00,
2013-07-25 14:20:00,95.3,72.5,29.96,South,186,0.0,5.0,48,0.00,,SKC,0.00,VWS V14.01,2013-07-25 19:20:00,
2013-07-25 14:22:00,95.5,72.1,29.96,South,183,2.0,7.0,47,0.00,,SKC,0.00,VWS V14.01,2013-07-25 19:22:00,
2013-07-25 14:27:00,95.6,73.4,29.95,South,183,0.0,1.0,49,0.00,,SKC,0.00,VWS V14.01,2013-07-25 19:27:00,
2013-07-25 14:30:00,95.5,71.4,29.96,South,183,0.0,7.0,46,0.00,,SKC,0.00,VWS V14.01,2013-07-25 19:30:00,
2013-07-25 14:32:00,95.8,73.6,29.95,South,183,2.0,4.0,49,0.00,,SKC,0.00,VWS V14.01,2013-07-25 19:32:00,
2013-07-25 14:37:00,96.3,72.8,29.95,South,183,1.0,3.0,47,0.00,,SKC,0.00,VWS V14.01,2013-07-25 19:37:00,
2013-07-25 14:40:00,96.2,73.3,29.95,South,183,0.0,4.0,48,0.00,,SKC,0.00,VWS V14.01,2013-07-25 19:40:00,
2013-07-25 14:42:00,96.5,73.0,29.95,South,183,0.0,4.0,47,0.00,,SKC,0.00,VWS V14.01,2013-07-25 19:42:00,
2013-07-25 14:47:00,96.9,73.3,29.95,South,183,1.0,2.0,47,0.00,,SKC,0.00,VWS V14.01,2013-07-25 19:47:00,
2013-07-25 14:50:00,96.8,73.3,29.95,South,183,1.0,4.0,47,0.00,,SKC,0.00,VWS V14.01,2013-07-25 19:50:00,
2013-07-25 14:52:00,97.0,72.8,29.95,South,183,1.0,6.0,46,0.00,,SKC,0.00,VWS V14.01,2013-07-25 19:52:00,
2013-07-25 14:57:00,97.0,72.8,29.94,South,183,3.0,7.0,46,0.00,,SKC,0.00,VWS V14.01,2013-07-25 19:57:00,
2013-07-25 15:00:00,96.9,73.3,29.94,South,183,0.0,6.0,47,0.00,,SKC,0.00,VWS V14.01,2013-07-25 20:00:00,
2013-07-25 15:02:00,97.1,72.9,29.94,South,183,0.0,7.0,46,0.00,,SKC,0.00,VWS V14.01,2013-07-25 20:02:00,
2013-07-25 15:07:00,97.3,73.1,29.94,South,183,0.0,2.0,46,0.00,,SKC,0.00,VWS V14.01,2013-07-25 20:07:00,
2013-07-25 15:10:00,97.2,73.0,29.94,South,183,0.0,7.0,46,0.00,,SKC,0.00,VWS V14.01,2013-07-25 20:10:00,
2013-07-25 15:12:00,97.3,72.4,29.94,South,183,0.0,2.0,45,0.00,,SKC,0.00,VWS V14.01,2013-07-25 20:12:00,
2013-07-25 15:17:00,97.3,73.1,29.94,South,183,0.0,2.0,46,0.00,,SKC,0.00,VWS V14.01,2013-07-25 20:17:00,
2013-07-25 15:20:00,97.3,73.1,29.94,South,183,0.0,2.0,46,0.00,,SKC,0.00,VWS V14.01,2013-07-25 20:20:00,
2013-07-25 15:22:00,97.7,72.1,29.94,South,183,2.0,4.0,44,0.00,,SKC,0.00,VWS V14.01,2013-07-25 20:22:00,
2013-07-25 15:27:00,97.9,72.3,29.94,South,183,0.0,6.0,44,0.00,,SKC,0.00,VWS V14.01,2013-07-25 20:27:00,
2013-07-25 15:30:00,97.9,73.0,29.94,South,183,3.0,6.0,45,0.00,,SKC,0.00,VWS V14.01,2013-07-25 20:30:00,
2013-07-25 15:32:00,98.2,71.9,29.94,South,183,0.0,6.0,43,0.00,,SKC,0.00,VWS V14.01,2013-07-25 20:32:00,
2013-07-25 15:37:00,98.4,70.7,29.94,South,183,0.0,0.0,41,0.00,,SKC,0.00,VWS V14.01,2013-07-25 20:37:00,
2013-07-25 15:40:00,98.3,70.6,29.94,South,183,0.0,6.0,41,0.00,,SKC,0.00,VWS V14.01,2013-07-25 20:40:00,
2013-07-25 15:42:00,98.6,72.2,29.93,South,182,2.0,6.0,43,0.00,,SKC,0.00,VWS V14.01,2013-07-25 20:42:00,
2013-07-25 15:47:00,98.5,72.2,29.93,South,182,0.0,3.0,43,0.00,,SKC,0.00,VWS V14.01,2013-07-25 20:47:00,
2013-07-25 15:50:00,98.5,71.5,29.93,South,182,3.0,6.0,42,0.00,,SKC,0.00,VWS V14.01,2013-07-25 20:50:00,
2013-07-25 15:52:00,98.5,71.5,29.93,South,182,0.0,3.0,42,0.00,,SKC,0.00,VWS V14.01,2013-07-25 20:52:00,
2013-07-25 15:57:00,98.5,70.0,29.93,South,180,0.0,0.0,40,0.00,,SKC,0.00,VWS V14.01,2013-07-25 20:57:00,
2013-07-25 16:00:00,98.5,70.0,29.93,South,180,0.0,6.0,40,0.00,,SKC,0.00,VWS V14.01,2013-07-25 21:00:00,
2013-07-25 16:02:00,98.6,70.8,29.93,South,180,1.0,5.0,41,0.00,,SKC,0.00,VWS V14.01,2013-07-25 21:02:00,
2013-07-25 16:07:00,98.7,71.6,29.93,South,180,0.0,0.0,42,0.00,,SKC,0.00,VWS V14.01,2013-07-25 21:07:00,
2013-07-25 16:10:00,98.7,70.2,29.93,South,180,0.0,8.0,40,0.00,,SKC,0.00,VWS V14.01,2013-07-25 21:10:00,
2013-07-25 16:12:00,98.9,71.1,29.93,South,180,0.0,3.0,41,0.00,,SKC,0.00,VWS V14.01,2013-07-25 21:12:00,
2013-07-25 16:17:00,99.3,71.5,29.93,South,178,3.0,5.0,41,0.00,,SKC,0.00,VWS V14.01,2013-07-25 21:17:00,
2013-07-25 16:20:00,99.2,71.4,29.93,South,180,1.0,3.0,41,0.00,,SKC,0.00,VWS V14.01,2013-07-25 21:20:00,
2013-07-25 16:22:00,99.5,71.6,29.93,South,178,1.0,5.0,41,0.00,,SKC,0.00,VWS V14.01,2013-07-25 21:22:00,
2013-07-25 16:27:00,99.6,71.0,29.92,South,178,2.0,4.0,40,0.00,,SKC,0.00,VWS V14.01,2013-07-25 21:27:00,
2013-07-25 16:30:00,99.6,71.7,29.92,South,178,0.0,5.0,41,0.00,,SKC,0.00,VWS V14.01,2013-07-25 21:30:00,
2013-07-25 16:32:00,99.6,70.3,29.92,South,173,0.0,5.0,39,0.00,,SKC,0.00,VWS V14.01,2013-07-25 21:32:00,
2013-07-25 16:37:00,99.5,68.6,29.92,South,173,0.0,3.0,37,0.00,,SKC,0.00,VWS V14.01,2013-07-25 21:37:00,
2013-07-25 16:40:00,99.5,68.6,29.92,South,173,0.0,7.0,37,0.00,,SKC,0.00,VWS V14.01,2013-07-25 21:40:00,
2013-07-25 16:42:00,99.6,68.7,29.92,South,173,0.0,7.0,37,0.00,,SKC,0.00,VWS V14.01,2013-07-25 21:42:00,
2013-07-25 16:47:00,99.8,67.3,29.92,South,173,0.0,0.0,35,0.00,,SKC,0.00,VWS V14.01,2013-07-25 21:47:00,
2013-07-25 16:50:00,99.7,68.0,29.92,South,173,0.0,7.0,36,0.00,,SKC,0.00,VWS V14.01,2013-07-25 21:50:00,
2013-07-25 16:52:00,100.0,68.3,29.92,South,173,0.0,3.0,36,0.00,,SKC,0.00,VWS V14.01,2013-07-25 21:52:00,
2013-07-25 16:57:00,100.0,68.3,29.92,South,173,0.0,0.0,36,0.00,,SKC,0.00,VWS V14.01,2013-07-25 21:57:00,
2013-07-25 17:00:00,100.0,69.1,29.92,South,173,0.0,3.0,37,0.00,,SKC,0.00,VWS V14.01,2013-07-25 22:00:00,
2013-07-25 17:02:00,99.8,68.1,29.92,South,173,0.0,0.0,36,0.00,,SKC,0.00,VWS V14.01,2013-07-25 22:02:00,
2013-07-25 17:07:00,99.9,69.0,29.92,South,173,0.0,2.0,37,0.00,,SKC,0.00,VWS V14.01,2013-07-25 22:07:00,
2013-07-25 17:10:00,99.8,68.9,29.92,South,173,0.0,0.0,37,0.00,,SKC,0.00,VWS V14.01,2013-07-25 22:10:00,
2013-07-25 17:12:00,100.2,69.2,29.92,South,173,0.0,4.0,37,0.00,,SKC,0.00,VWS V14.01,2013-07-25 22:12:00,
2013-07-25 17:17:00,100.5,69.5,29.92,South,173,0.0,5.0,37,0.00,,SKC,0.00,VWS V14.01,2013-07-25 22:17:00,
2013-07-25 17:20:00,100.4,69.4,29.92,South,173,2.0,4.0,37,0.00,,SKC,0.00,VWS V14.01,2013-07-25 22:20:00,
2013-07-25 17:22:00,100.6,70.4,29.92,South,173,0.0,5.0,38,0.00,,SKC,0.00,VWS V14.01,2013-07-25 22:22:00,
2013-07-25 17:27:00,100.6,69.6,29.91,South,173,0.0,4.0,37,0.00,,SKC,0.00,VWS V14.01,2013-07-25 22:27:00,
2013-07-25 17:30:00,100.6,68.8,29.92,South,173,3.0,5.0,36,0.00,,SKC,0.00,VWS V14.01,2013-07-25 22:30:00,
2013-07-25 17:32:00,100.7,69.7,29.91,South,173,0.0,4.0,37,0.00,,SKC,0.00,VWS V14.01,2013-07-25 22:32:00,
2013-07-25 17:37:00,100.5,71.1,29.91,South,173,1.0,2.0,39,0.00,,SKC,0.00,VWS V14.01,2013-07-25 22:37:00,
2013-07-25 17:40:00,100.6,71.2,29.91,South,173,0.0,7.0,39,0.00,,SKC,0.00,VWS V14.01,2013-07-25 22:40:00,
2013-07-25 17:42:00,100.2,70.0,29.91,South,173,0.0,3.0,38,0.00,,SKC,0.00,VWS V14.01,2013-07-25 22:42:00,
2013-07-25 17:47:00,99.9,70.5,29.91,South,173,0.0,1.0,39,0.00,,SKC,0.00,VWS V14.01,2013-07-25 22:47:00,
2013-07-25 17:50:00,100.0,70.6,29.91,South,173,1.0,3.0,39,0.00,,SKC,0.00,VWS V14.01,2013-07-25 22:50:00,
2013-07-25 17:52:00,99.4,70.1,29.91,South,176,0.0,1.0,39,0.00,,SKC,0.00,VWS V14.01,2013-07-25 22:52:00,
2013-07-25 17:57:00,99.3,70.7,29.90,South,176,0.0,1.0,40,0.00,,SKC,0.00,VWS V14.01,2013-07-25 22:57:00,
2013-07-25 18:00:00,99.3,70.7,29.91,South,176,1.0,1.0,40,0.00,,SKC,0.00,VWS V14.01,2013-07-25 23:00:00,
2013-07-25 18:02:00,98.9,69.6,29.91,South,174,0.0,2.0,39,0.00,,SKC,0.00,VWS V14.01,2013-07-25 23:02:00,
2013-07-25 18:07:00,98.7,69.5,29.91,South,174,0.0,0.0,39,0.00,,SKC,0.00,VWS V14.01,2013-07-25 23:07:00,
2013-07-25 18:10:00,98.7,69.5,29.91,South,174,0.0,2.0,39,0.00,,SKC,0.00,VWS V14.01,2013-07-25 23:10:00,
2013-07-25 18:12:00,98.5,69.3,29.90,South,174,0.0,0.0,39,0.00,,SKC,0.00,VWS V14.01,2013-07-25 23:12:00,
2013-07-25 18:17:00,98.4,69.9,29.90,South,174,0.0,1.0,40,0.00,,SKC,0.00,VWS V14.01,2013-07-25 23:17:00,
2013-07-25 18:20:00,98.5,69.3,29.90,South,174,0.0,0.0,39,0.00,,SKC,0.00,VWS V14.01,2013-07-25 23:20:00,
2013-07-25 18:22:00,98.2,69.0,29.90,SSE,168,2.0,4.0,39,0.00,,SKC,0.00,VWS V14.01,2013-07-25 23:22:00,
2013-07-25 18:27:00,98.0,68.8,29.90,SSE,166,0.0,4.0,39,0.00,,SKC,0.00,VWS V14.01,2013-07-25 23:27:00,
2013-07-25 18:30:00,98.1,69.7,29.90,SSE,166,0.0,4.0,40,0.00,,SKC,0.00,VWS V14.01,2013-07-25 23:30:00,
2013-07-25 18:32:00,97.7,69.3,29.90,SSE,165,0.0,7.0,40,0.00,,SKC,0.00,VWS V14.01,2013-07-25 23:32:00,
2013-07-25 18:37:00,97.5,69.1,29.90,SSE,165,0.0,1.0,40,0.00,,SKC,0.00,VWS V14.01,2013-07-25 23:37:00,
2013-07-25 18:40:00,97.6,69.2,29.90,SSE,165,0.0,7.0,40,0.00,,SKC,0.00,VWS V14.01,2013-07-25 23:40:00,
2013-07-25 18:42:00,97.3,69.0,29.90,SSE,165,0.0,1.0,40,0.00,,SKC,0.00,VWS V14.01,2013-07-25 23:42:00,
2013-07-25 18:47:00,97.2,68.1,29.90,SSE,165,0.0,1.0,39,0.00,,SKC,0.00,VWS V14.01,2013-07-25 23:47:00,
2013-07-25 18:50:00,97.3,68.2,29.90,SSE,165,0.0,1.0,39,0.00,,SKC,0.00,VWS V14.01,2013-07-25 23:50:00,
2013-07-25 18:52:00,97.0,68.7,29.90,SSE,165,0.0,2.0,40,0.00,,SKC,0.00,VWS V14.01,2013-07-25 23:52:00,
2013-07-25 18:57:00,96.9,67.9,29.90,SSE,165,0.0,0.0,39,0.00,,SKC,0.00,VWS V14.01,2013-07-25 23:57:00,
2013-07-25 19:00:00,96.9,67.9,29.90,SSE,165,0.0,2.0,39,0.00,,SKC,0.00,VWS V14.01,2013-07-26 00:00:00,
2013-07-25 19:02:00,96.7,68.4,29.90,SSE,165,0.0,1.0,40,0.00,,SKC,0.00,VWS V14.01,2013-07-26 00:02:00,
2013-07-25 19:07:00,96.5,67.5,29.90,SSE,165,0.0,0.0,39,0.00,,SKC,0.00,VWS V14.01,2013-07-26 00:07:00,
2013-07-25 19:10:00,96.6,68.3,29.90,SSE,165,0.0,1.0,40,0.00,,SKC,0.00,VWS V14.01,2013-07-26 00:10:00,
2013-07-25 19:12:00,96.4,68.9,29.90,SSE,165,0.0,5.0,41,0.00,,SKC,0.00,VWS V14.01,2013-07-26 00:12:00,
2013-07-25 19:17:00,96.2,69.4,29.90,SSE,165,0.0,1.0,42,0.00,,SKC,0.00,VWS V14.01,2013-07-26 00:17:00,
2013-07-25 19:20:00,96.2,68.7,29.90,SSE,165,0.0,5.0,41,0.00,,SKC,0.00,VWS V14.01,2013-07-26 00:20:00,
2013-07-25 19:22:00,95.9,69.1,29.89,SSE,165,0.0,1.0,42,0.00,,SKC,0.00,VWS V14.01,2013-07-26 00:22:00,
2013-07-25 19:27:00,95.6,68.9,29.90,SSE,165,0.0,0.0,42,0.00,,SKC,0.00,VWS V14.01,2013-07-26 00:27:00,
2013-07-25 19:30:00,95.7,68.2,29.89,SSE,165,0.0,1.0,41,0.00,,SKC,0.00,VWS V14.01,2013-07-26 00:30:00,
2013-07-25 19:32:00,95.4,68.7,29.90,SSE,165,0.0,3.0,42,0.00,,SKC,0.00,VWS V14.01,2013-07-26 00:32:00,
2013-07-25 19:37:00,95.2,68.5,29.90,SSE,165,0.0,0.0,42,0.00,,SKC,0.00,VWS V14.01,2013-07-26 00:37:00,
2013-07-25 19:40:00,95.3,68.6,29.90,SSE,165,0.0,3.0,42,0.00,,SKC,0.00,VWS V14.01,2013-07-26 00:40:00,
2013-07-25 19:42:00,95.0,68.3,29.90,SSE,165,0.0,0.0,42,0.00,,SKC,0.00,VWS V14.01,2013-07-26 00:42:00,
2013-07-25 19:47:00,94.8,68.8,29.90,SSE,165,0.0,0.0,43,0.00,,SKC,0.00,VWS V14.01,2013-07-26 00:47:00,
2013-07-25 19:50:00,94.8,68.8,29.90,SSE,165,0.0,1.0,43,0.00,,SKC,0.00,VWS V14.01,2013-07-26 00:50:00,
2013-07-25 19:52:00,94.5,69.2,29.90,SSE,165,0.0,2.0,44,0.00,,SKC,0.00,VWS V14.01,2013-07-26 00:52:00,
2013-07-25 19:57:00,94.2,69.0,29.90,SSE,165,0.0,0.0,44,0.00,,SKC,0.00,VWS V14.01,2013-07-26 00:57:00,
2013-07-25 20:00:00,94.3,69.1,29.90,SSE,165,0.0,2.0,44,0.00,,SKC,0.00,VWS V14.01,2013-07-26 01:00:00,
2013-07-25 20:02:00,93.9,69.3,29.90,SSE,165,0.0,0.0,45,0.00,,SKC,0.00,VWS V14.01,2013-07-26 01:02:00,
2013-07-25 20:07:00,93.6,69.1,29.90,SSE,165,0.0,0.0,45,0.00,,SKC,0.00,VWS V14.01,2013-07-26 01:07:00,
2013-07-25 20:10:00,93.7,69.2,29.90,SSE,165,0.0,0.0,45,0.00,,SKC,0.00,VWS V14.01,2013-07-26 01:10:00,
2013-07-25 20:12:00,93.4,69.5,29.90,SSE,165,0.0,0.0,46,0.00,,SKC,0.00,VWS V14.01,2013-07-26 01:12:00,
2013-07-25 20:17:00,93.1,69.3,29.90,SSE,165,0.0,0.0,46,0.00,,SKC,0.00,VWS V14.01,2013-07-26 01:17:00,
2013-07-25 20:20:00,93.1,69.3,29.90,SSE,165,0.0,0.0,46,0.00,,SKC,0.00,VWS V14.01,2013-07-26 01:20:00,
2013-07-25 20:22:00,92.7,69.5,29.90,SSE,165,0.0,0.0,47,0.00,,SKC,0.00,VWS V14.01,2013-07-26 01:22:00,
2013-07-25 20:27:00,92.4,69.3,29.90,SSE,165,0.0,1.0,47,0.00,,SKC,0.00,VWS V14.01,2013-07-26 01:27:00,
2013-07-25 20:30:00,92.5,69.3,29.90,SSE,165,0.0,0.0,47,0.00,,SKC,0.00,VWS V14.01,2013-07-26 01:30:00,
2013-07-25 20:32:00,92.0,69.5,29.89,SSE,165,0.0,1.0,48,0.00,,SKC,0.00,VWS V14.01,2013-07-26 01:32:00,
2013-07-25 20:37:00,91.6,69.2,29.90,SSE,165,0.0,0.0,48,0.00,,SKC,0.00,VWS V14.01,2013-07-26 01:37:00,
2013-07-25 20:40:00,91.7,69.2,29.90,SSE,165,0.0,1.0,48,0.00,,SKC,0.00,VWS V14.01,2013-07-26 01:40:00,
2013-07-25 20:42:00,91.3,68.9,29.90,SSE,165,0.0,0.0,48,0.00,,SKC,0.00,VWS V14.01,2013-07-26 01:42:00,
2013-07-25 20:47:00,91.0,69.2,29.90,SSE,165,0.0,0.0,49,0.00,,SKC,0.00,VWS V14.01,2013-07-26 01:47:00,
2013-07-25 20:50:00,91.1,69.3,29.90,SSE,165,0.0,0.0,49,0.00,,SKC,0.00,VWS V14.01,2013-07-26 01:50:00,
2013-07-25 20:52:00,90.6,69.4,29.91,SSE,165,0.0,3.0,50,0.00,,SKC,0.00,VWS V14.01,2013-07-26 01:52:00,
2013-07-25 20:57:00,90.3,70.3,29.90,SSE,165,0.0,2.0,52,0.00,,SKC,0.00,VWS V14.01,2013-07-26 01:57:00,
2013-07-25 21:00:00,90.4,69.8,29.90,SSE,165,0.0,7.0,51,0.00,,SKC,0.00,VWS V14.01,2013-07-26 02:00:00,
2013-07-25 21:02:00,90.0,71.1,29.91,SSE,165,0.0,3.0,54,0.00,,SKC,0.00,VWS V14.01,2013-07-26 02:02:00,
2013-07-25 21:07:00,89.8,71.5,29.91,SSE,165,0.0,1.0,55,0.00,,SKC,0.00,VWS V14.01,2013-07-26 02:07:00,
2013-07-25 21:10:00,89.9,71.6,29.91,SSE,165,0.0,4.0,55,0.00,,SKC,0.00,VWS V14.01,2013-07-26 02:10:00,
2013-07-25 21:12:00,89.5,72.3,29.91,SSE,165,0.0,2.0,57,0.00,,SKC,0.00,VWS V14.01,2013-07-26 02:12:00,
2013-07-25 21:17:00,89.2,73.0,29.91,SSE,163,0.0,7.0,59,0.00,,SKC,0.00,VWS V14.01,2013-07-26 02:17:00,
2013-07-25 21:20:00,89.3,72.6,29.91,SSE,165,1.0,3.0,58,0.00,,SKC,0.00,VWS V14.01,2013-07-26 02:20:00,
2013-07-25 21:22:00,89.0,73.3,29.91,SSE,161,0.0,7.0,60,0.00,,SKC,0.00,VWS V14.01,2013-07-26 02:22:00,
2013-07-25 21:27:00,88.7,73.5,29.91,SSE,161,0.0,5.0,61,0.00,,SKC,0.00,VWS V14.01,2013-07-26 02:27:00,
2013-07-25 21:30:00,88.8,73.6,29.91,SSE,161,3.0,8.0,61,0.00,,SKC,0.00,VWS V14.01,2013-07-26 02:30:00,
2013-07-25 21:32:00,88.4,73.7,29.91,SSE,161,0.0,8.0,62,0.00,,SKC,0.00,VWS V14.01,2013-07-26 02:32:00,
2013-07-25 21:37:00,88.1,73.4,29.92,SSE,161,0.0,6.0,62,0.00,,SKC,0.00,VWS V14.01,2013-07-26 02:37:00,
2013-07-25 21:40:00,88.2,73.5,29.92,SSE,161,0.0,8.0,62,0.00,,SKC,0.00,VWS V14.01,2013-07-26 02:40:00,
2013-07-25 21:42:00,87.8,73.6,29.92,SSE,161,1.0,11.0,63,0.00,,SKC,0.00,VWS V14.01,2013-07-26 02:42:00,
2013-07-25 21:47:00,87.5,73.4,29.92,SSE,161,3.0,8.0,63,0.00,,SKC,0.00,VWS V14.01,2013-07-26 02:47:00,
2013-07-25 21:50:00,87.7,73.6,29.92,SSE,161,8.0,11.0,63,0.00,,SKC,0.00,VWS V14.01,2013-07-26 02:50:00,
2013-07-25 21:52:00,87.3,73.6,29.93,SSE,162,1.0,8.0,64,0.00,,SKC,0.00,VWS V14.01,2013-07-26 02:52:00,
2013-07-25 21:57:00,87.0,73.4,29.93,SSE,162,2.0,6.0,64,0.00,,SKC,0.00,VWS V14.01,2013-07-26 02:57:00,
2013-07-25 22:00:00,87.1,73.4,29.93,SSE,162,4.0,8.0,64,0.00,,SKC,0.00,VWS V14.01,2013-07-26 03:00:00,
2013-07-25 22:02:00,86.6,73.4,29.93,SSE,162,1.0,6.0,65,0.00,,SKC,0.00,VWS V14.01,2013-07-26 03:02:00,
2013-07-25 22:07:00,86.4,73.2,29.93,SSE,163,3.0,6.0,65,0.00,,SKC,0.00,VWS V14.01,2013-07-26 03:07:00,
2013-07-25 22:10:00,86.5,73.3,29.93,SSE,162,5.0,8.0,65,0.00,,SKC,0.00,VWS V14.01,2013-07-26 03:10:00,
2013-07-25 22:12:00,86.1,73.4,29.93,SSE,163,1.0,7.0,66,0.00,,SKC,0.00,VWS V14.01,2013-07-26 03:12:00,
2013-07-25 22:17:00,85.8,73.1,29.94,SSE,163,0.0,0.0,66,0.00,,SKC,0.00,VWS V14.01,2013-07-26 03:17:00,
2013-07-25 22:20:00,85.9,73.2,29.94,SSE,163,0.0,7.0,66,0.00,,SKC,0.00,VWS V14.01,2013-07-26 03:20:00,
2013-07-25 22:22:00,85.5,72.8,29.94,SSE,163,0.0,6.0,66,0.00,,SKC,0.00,VWS V14.01,2013-07-26 03:22:00,
2013-07-25 22:27:00,85.3,73.1,29.95,SSE,163,3.0,7.0,67,0.00,,SKC,0.00,VWS V14.01,2013-07-26 03:27:00,
2013-07-25 22:30:00,85.4,73.2,29.94,SSE,163,0.0,8.0,67,0.00,,SKC,0.00,VWS V14.01,2013-07-26 03:30:00,
2013-07-25 22:32:00,85.1,72.9,29.95,SSE,163,0.0,7.0,67,0.00,,SKC,0.00,VWS V14.01,2013-07-26 03:32:00,
2013-07-25 22:37:00,84.8,73.1,29.95,SSE,162,0.0,6.0,68,0.00,,SKC,0.00,VWS V14.01,2013-07-26 03:37:00,
2013-07-25 22:40:00,84.9,72.7,29.95,SSE,162,0.0,7.0,67,0.00,,SKC,0.00,VWS V14.01,2013-07-26 03:40:00,
2013-07-25 22:42:00,84.6,72.9,29.95,SSE,162,3.0,10.0,68,0.00,,SKC,0.00,VWS V14.01,2013-07-26 03:42:00,
2013-07-25 22:47:00,84.4,72.7,29.95,SSE,162,0.0,5.0,68,0.00,,SKC,0.00,VWS V14.01,2013-07-26 03:47:00,
2013-07-25 22:50:00,84.5,72.8,29.95,SSE,162,5.0,10.0,68,0.00,,SKC,0.00,VWS V14.01,2013-07-26 03:50:00,
2013-07-25 22:52:00,84.3,73.0,29.96,SSE,162,1.0,7.0,69,0.00,,SKC,0.00,VWS V14.01,2013-07-26 03:52:00,
2013-07-25 22:57:00,84.1,72.8,29.96,SSE,162,0.0,6.0,69,0.00,,SKC,0.00,VWS V14.01,2013-07-26 03:57:00,
2013-07-25 23:00:00,84.1,72.8,29.96,SSE,162,0.0,8.0,69,0.00,,SKC,0.00,VWS V14.01,2013-07-26 04:00:00,
2013-07-25 23:01:00,84.0,72.7,29.96,SSE,162,0.0,7.0,69,0.00,,SKC,0.00,VWS V14.01,2013-07-26 04:01:00,
2013-07-25 23:02:00,83.9,72.7,29.97,SSE,162,0.0,7.0,69,0.00,,SKC,0.00,VWS V14.01,2013-07-26 04:02:00,
2013-07-25 23:07:00,83.8,73.0,29.97,SSE,162,0.0,0.0,70,0.00,,SKC,0.00,VWS V14.01,2013-07-26 04:07:00,
2013-07-25 23:10:00,83.8,73.0,29.97,SSE,162,0.0,8.0,70,0.00,,SKC,0.00,VWS V14.01,2013-07-26 04:10:00,
2013-07-25 23:12:00,83.6,72.8,29.97,SSE,161,0.0,8.0,70,0.00,,SKC,0.00,VWS V14.01,2013-07-26 04:12:00,
2013-07-25 23:17:00,83.4,72.6,29.97,SSE,161,0.0,4.0,70,0.00,,SKC,0.00,VWS V14.01,2013-07-26 04:17:00,
2013-07-25 23:20:00,83.4,72.6,29.97,SSE,161,2.0,11.0,70,0.00,,SKC,0.00,VWS V14.01,2013-07-26 04:20:00,
2013-07-25 23:22:00,83.2,72.4,29.97,SSE,161,0.0,4.0,70,0.00,,SKC,0.00,VWS V14.01,2013-07-26 04:22:00,
2013-07-25 23:27:00,83.0,72.6,29.97,SSE,161,0.0,0.0,71,0.00,,SKC,0.00,VWS V14.01,2013-07-26 04:27:00,
2013-07-25 23:30:00,83.0,72.6,29.97,SSE,161,0.0,7.0,71,0.00,,SKC,0.00,VWS V14.01,2013-07-26 04:30:00,
2013-07-25 23:32:00,82.8,72.4,29.97,SSE,161,0.0,1.0,71,0.00,,SKC,0.00,VWS V14.01,2013-07-26 04:32:00,
2013-07-25 23:37:00,82.6,72.2,29.97,SSE,161,0.0,4.0,71,0.00,,SKC,0.00,VWS V14.01,2013-07-26 04:37:00,
2013-07-25 23:40:00,82.6,72.2,29.97,SSE,161,2.0,7.0,71,0.00,,SKC,0.00,VWS V14.01,2013-07-26 04:40:00,
2013-07-25 23:42:00,82.4,72.1,29.97,SSE,161,0.0,5.0,71,0.00,,SKC,0.00,VWS V14.01,2013-07-26 04:42:00,
2013-07-25 23:47:00,82.3,72.4,29.98,SSE,161,4.0,6.0,72,0.00,,SKC,0.00,VWS V14.01,2013-07-26 04:47:00,
2013-07-25 23:50:00,82.3,72.4,29.97,SSE,161,0.0,5.0,72,0.00,,SKC,0.00,VWS V14.01,2013-07-26 04:50:00,
2013-07-25 23:52:00,82.1,72.2,29.98,SSE,161,0.0,6.0,72,0.00,,SKC,0.00,VWS V14.01,2013-07-26 04:52:00,
2013-07-25 23:57:00,81.9,72.4,29.98,SSE,161,0.0,0.0,73,0.00,,SKC,0.00,VWS V14.01,2013-07-26 04:57:00,